ZPTAI SBSC-SBLJ

Flight info

Callsign ZPTAI
Flight time 4h 23m
Altitude FL080
Route UGRAD IBDAL GESBO PUBIS UGINO UMGAD UTBIT
Aircraft C172/L-SG/C

Departure

Time 2026-05-07 21:34
Airport Santa Cruz Air Force Base (SBSC)

Arrival

Time 2026-05-08 01:57
Airport Lages Airport (SBLJ)
Time Latitude Longitude Altitude Speed Heading
2026-05-07 21:15 -22.93291 -43.71676 14 ft 0 kts 132°
2026-05-07 21:24 -22.93284 -43.71685 14 ft 2 kts 132°
2026-05-07 21:24 -22.93272 -43.71699 14 ft 1 kts 132°
2026-05-07 21:25 -22.93273 -43.71697 14 ft 2 kts 122°
2026-05-07 21:26 -22.93249 -43.71706 14 ft 7 kts 291°
2026-05-07 21:26 -22.93221 -43.71777 14 ft 11 kts 286°
2026-05-07 21:26 -22.93266 -43.71831 14 ft 15 kts 204°
2026-05-07 21:26 -22.93399 -43.71886 14 ft 25 kts 201°
2026-05-07 21:27 -22.93586 -43.71962 14 ft 29 kts 203°
2026-05-07 21:27 -22.93744 -43.72031 14 ft 21 kts 207°
2026-05-07 21:27 -22.93893 -43.72096 14 ft 27 kts 199°
2026-05-07 21:27 -22.94055 -43.72165 14 ft 20 kts 201°
2026-05-07 21:28 -22.94217 -43.72234 14 ft 28 kts 205°
2026-05-07 21:28 -22.94404 -43.72314 14 ft 29 kts 203°
2026-05-07 21:28 -22.94499 -43.72418 14 ft 4 kts 262°
2026-05-07 21:28 -22.94500 -43.72427 14 ft 0 kts 262°
2026-05-07 21:29 -22.94500 -43.72428 14 ft 0 kts 262°
2026-05-07 21:29 -22.94500 -43.72429 14 ft 0 kts 261°
2026-05-07 21:29 -22.94502 -43.72443 14 ft 3 kts 261°
2026-05-07 21:30 -22.94492 -43.72485 14 ft 8 kts 328°
2026-05-07 21:30 -22.94477 -43.72484 14 ft 0 kts 21°
2026-05-07 21:33 -22.94421 -43.72462 14 ft 29 kts 22°
2026-05-07 21:33 -22.94104 -43.72327 14 ft 66 kts 22°
2026-05-07 21:33 -22.93659 -43.72155 154 ft 64 kts 17°
2026-05-07 21:33 -22.93240 -43.72006 296 ft 62 kts 18°
2026-05-07 21:34 -22.92835 -43.71861 438 ft 62 kts 17°
2026-05-07 21:34 -22.92417 -43.71710 604 ft 63 kts 18°
2026-05-07 21:34 -22.92000 -43.71562 779 ft 63 kts 18°
2026-05-07 21:34 -22.91585 -43.71417 951 ft 62 kts 18°
2026-05-07 21:35 -22.91174 -43.71275 1121 ft 62 kts 18°
2026-05-07 21:35 -22.90766 -43.71135 1286 ft 62 kts 18°
2026-05-07 21:35 -22.90358 -43.71001 1448 ft 61 kts 18°
2026-05-07 21:35 -22.89953 -43.70870 1607 ft 61 kts 17°
2026-05-07 21:36 -22.89573 -43.70736 1750 ft 60 kts 29°
2026-05-07 21:36 -22.89526 -43.70344 1862 ft 66 kts 126°
2026-05-07 21:36 -22.89997 -43.70325 2001 ft 74 kts 193°
2026-05-07 21:36 -22.90482 -43.70439 2106 ft 79 kts 188°
2026-05-07 21:37 -22.90690 -43.70481 2153 ft 81 kts 188°
2026-05-07 21:37 -22.91265 -43.70593 2264 ft 86 kts 188°
2026-05-07 21:37 -22.91874 -43.70698 2368 ft 92 kts 187°
2026-05-07 21:37 -22.92523 -43.70798 2464 ft 97 kts 187°
2026-05-07 21:38 -22.93168 -43.70883 2546 ft 101 kts 186°
2026-05-07 21:38 -22.93761 -43.71242 2617 ft 100 kts 242°
2026-05-07 21:38 -22.94109 -43.71876 2738 ft 99 kts 242°
2026-05-07 21:38 -22.94480 -43.72521 2814 ft 103 kts 242°
2026-05-07 21:39 -22.94766 -43.73019 2868 ft 105 kts 242°
2026-05-07 21:39 -22.95016 -43.73447 2918 ft 107 kts 241°
2026-05-07 21:39 -22.95412 -43.74128 2999 ft 107 kts 242°
2026-05-07 21:39 -22.95808 -43.74814 3078 ft 108 kts 242°
2026-05-07 21:40 -22.96206 -43.75506 3156 ft 108 kts 242°
2026-05-07 21:40 -22.96606 -43.76198 3232 ft 109 kts 242°
2026-05-07 21:40 -22.97008 -43.76893 3307 ft 109 kts 242°
2026-05-07 21:40 -22.97410 -43.77586 3381 ft 109 kts 242°
2026-05-07 21:41 -22.97814 -43.78282 3456 ft 109 kts 242°
2026-05-07 21:41 -22.98219 -43.78978 3531 ft 109 kts 242°
2026-05-07 21:41 -22.98623 -43.79671 3606 ft 109 kts 242°
2026-05-07 21:41 -22.99029 -43.80366 3681 ft 109 kts 242°
2026-05-07 21:42 -22.99436 -43.81061 3755 ft 109 kts 242°
2026-05-07 21:42 -22.99843 -43.81755 3829 ft 109 kts 242°
2026-05-07 21:42 -23.00249 -43.82448 3902 ft 109 kts 242°
2026-05-07 21:42 -23.00656 -43.83139 3977 ft 109 kts 242°
2026-05-07 21:43 -23.01060 -43.83830 4051 ft 109 kts 242°
2026-05-07 21:43 -23.01464 -43.84520 4125 ft 109 kts 242°
2026-05-07 21:43 -23.01868 -43.85209 4198 ft 108 kts 242°
2026-05-07 21:43 -23.02273 -43.85897 4271 ft 108 kts 242°
2026-05-07 21:44 -23.02672 -43.86589 4345 ft 108 kts 243°
2026-05-07 21:44 -23.03067 -43.87280 4416 ft 108 kts 243°
2026-05-07 21:44 -23.03465 -43.87970 4490 ft 108 kts 243°
2026-05-07 21:44 -23.03861 -43.88656 4564 ft 108 kts 243°
2026-05-07 21:45 -23.04258 -43.89341 4638 ft 107 kts 243°
2026-05-07 21:45 -23.04655 -43.90026 4713 ft 107 kts 243°
2026-05-07 21:45 -23.05051 -43.90705 4807 ft 105 kts 243°
2026-05-07 21:45 -23.05428 -43.91362 4928 ft 101 kts 244°
2026-05-07 21:46 -23.05793 -43.91998 5053 ft 98 kts 244°
2026-05-07 21:46 -23.06149 -43.92616 5181 ft 96 kts 243°
2026-05-07 21:46 -23.06492 -43.93220 5311 ft 93 kts 244°
2026-05-07 21:46 -23.06827 -43.93813 5435 ft 92 kts 244°
2026-05-07 21:47 -23.07160 -43.94402 5544 ft 92 kts 244°
2026-05-07 21:47 -23.07493 -43.94990 5657 ft 92 kts 244°
2026-05-07 21:47 -23.07827 -43.95576 5768 ft 91 kts 244°
2026-05-07 21:47 -23.08159 -43.96158 5875 ft 91 kts 244°
2026-05-07 21:48 -23.08486 -43.96740 5983 ft 90 kts 245°
2026-05-07 21:48 -23.08807 -43.97319 6091 ft 89 kts 245°
2026-05-07 21:48 -23.09127 -43.97895 6196 ft 89 kts 245°
2026-05-07 21:48 -23.09446 -43.98467 6297 ft 89 kts 245°
2026-05-07 21:49 -23.09764 -43.99037 6400 ft 88 kts 245°
2026-05-07 21:49 -23.10082 -43.99602 6497 ft 88 kts 245°
2026-05-07 21:49 -23.10394 -44.00159 6592 ft 88 kts 245°
2026-05-07 21:49 -23.10713 -44.00732 6689 ft 87 kts 246°
2026-05-07 21:50 -23.11020 -44.01297 6783 ft 87 kts 246°
2026-05-07 21:50 -23.11329 -44.01862 6872 ft 87 kts 246°
2026-05-07 21:50 -23.11640 -44.02430 6950 ft 89 kts 242°
2026-05-07 21:50 -23.11954 -44.03007 7045 ft 90 kts 234°
2026-05-07 21:51 -23.12265 -44.03573 7141 ft 90 kts 233°
2026-05-07 21:51 -23.12599 -44.04176 7240 ft 90 kts 231°
2026-05-07 21:51 -23.12925 -44.04760 7327 ft 91 kts 230°
2026-05-07 21:51 -23.13257 -44.05350 7411 ft 92 kts 229°
2026-05-07 21:52 -23.13587 -44.05939 7490 ft 93 kts 230°
2026-05-07 21:52 -23.13934 -44.06544 7554 ft 95 kts 232°
2026-05-07 21:52 -23.14296 -44.07177 7599 ft 100 kts 241°
2026-05-07 21:52 -23.14655 -44.07808 7704 ft 95 kts 244°
2026-05-07 21:53 -23.14999 -44.08412 7767 ft 94 kts 244°
2026-05-07 21:53 -23.15344 -44.09019 7819 ft 94 kts 245°
2026-05-07 21:53 -23.15681 -44.09628 7871 ft 94 kts 245°
2026-05-07 21:53 -23.16017 -44.10237 7921 ft 94 kts 245°
2026-05-07 21:54 -23.16351 -44.10841 7987 ft 93 kts 245°
2026-05-07 21:54 -23.16682 -44.11442 8023 ft 94 kts 245°
2026-05-07 21:54 -23.17031 -44.12059 8033 ft 98 kts 244°
2026-05-07 21:54 -23.17392 -44.12696 8030 ft 101 kts 244°
2026-05-07 21:55 -23.17761 -44.13350 8024 ft 103 kts 244°
2026-05-07 21:55 -23.18136 -44.14015 8020 ft 104 kts 244°
2026-05-07 21:55 -23.18512 -44.14683 8017 ft 104 kts 244°
2026-05-07 21:55 -23.18889 -44.15356 8016 ft 105 kts 244°
2026-05-07 21:56 -23.19267 -44.16029 8015 ft 105 kts 244°
2026-05-07 21:56 -23.19645 -44.16703 8015 ft 105 kts 244°
2026-05-07 21:56 -23.20023 -44.17377 8015 ft 105 kts 244°
2026-05-07 21:56 -23.20400 -44.18050 8016 ft 104 kts 246°
2026-05-07 21:57 -23.20786 -44.18744 7969 ft 111 kts 246°
2026-05-07 21:57 -23.21181 -44.19460 7994 ft 111 kts 246°
2026-05-07 21:57 -23.21579 -44.20179 8002 ft 112 kts 246°
2026-05-07 21:57 -23.21980 -44.20905 8003 ft 113 kts 246°
2026-05-07 21:58 -23.22383 -44.21640 8001 ft 114 kts 246°
2026-05-07 21:58 -23.22789 -44.22379 7999 ft 114 kts 246°
2026-05-07 21:58 -23.23197 -44.23122 7998 ft 115 kts 246°
2026-05-07 21:58 -23.23605 -44.23866 7997 ft 115 kts 246°
2026-05-07 21:59 -23.24012 -44.24609 7997 ft 115 kts 246°
2026-05-07 21:59 -23.24420 -44.25353 7997 ft 115 kts 246°
2026-05-07 21:59 -23.24837 -44.26110 7953 ft 119 kts 245°
2026-05-07 21:59 -23.25267 -44.26877 7930 ft 119 kts 245°
2026-05-07 22:00 -23.25696 -44.27640 7922 ft 118 kts 245°
2026-05-07 22:00 -23.26122 -44.28397 7921 ft 117 kts 245°
2026-05-07 22:00 -23.26534 -44.29152 7923 ft 116 kts 246°
2026-05-07 22:00 -23.26944 -44.29904 7925 ft 116 kts 243°
2026-05-07 22:01 -23.27358 -44.30661 7932 ft 117 kts 235°
2026-05-07 22:01 -23.27764 -44.31397 7976 ft 110 kts 233°
2026-05-07 22:01 -23.28153 -44.32094 7962 ft 107 kts 236°
2026-05-07 22:01 -23.28534 -44.32780 7938 ft 105 kts 237°
2026-05-07 22:02 -23.28907 -44.33449 7934 ft 102 kts 238°
2026-05-07 22:02 -23.29273 -44.34106 7933 ft 101 kts 241°
2026-05-07 22:02 -23.29638 -44.34763 7936 ft 102 kts 243°
2026-05-07 22:02 -23.30000 -44.35419 7949 ft 102 kts 243°
2026-05-07 22:03 -23.30365 -44.36080 7952 ft 102 kts 243°
2026-05-07 22:03 -23.30493 -44.36313 7953 ft 102 kts 243°
2026-05-07 22:03 -23.30770 -44.36815 7952 ft 103 kts 243°
2026-05-07 22:03 -23.31138 -44.37481 7951 ft 103 kts 243°
2026-05-07 22:04 -23.31506 -44.38148 7954 ft 103 kts 243°
2026-05-07 22:04 -23.31875 -44.38816 7951 ft 104 kts 243°
2026-05-07 22:04 -23.32245 -44.39485 7952 ft 104 kts 243°
2026-05-07 22:04 -23.32615 -44.40157 7950 ft 104 kts 243°
2026-05-07 22:05 -23.32986 -44.40828 7949 ft 104 kts 243°
2026-05-07 22:05 -23.33353 -44.41494 7949 ft 104 kts 243°
2026-05-07 22:05 -23.33728 -44.42170 7948 ft 104 kts 243°
2026-05-07 22:05 -23.34101 -44.42843 7949 ft 104 kts 243°
2026-05-07 22:06 -23.34472 -44.43512 7949 ft 104 kts 243°
2026-05-07 22:06 -23.34843 -44.44182 7949 ft 104 kts 243°
2026-05-07 22:06 -23.35216 -44.44854 7949 ft 104 kts 243°
2026-05-07 22:06 -23.35588 -44.45525 7949 ft 104 kts 243°
2026-05-07 22:07 -23.35960 -44.46195 7949 ft 104 kts 243°
2026-05-07 22:07 -23.36330 -44.46867 7949 ft 104 kts 244°
2026-05-07 22:07 -23.36691 -44.47542 7949 ft 104 kts 244°
2026-05-07 22:07 -23.37050 -44.48219 7949 ft 104 kts 244°
2026-05-07 22:08 -23.37410 -44.48896 7949 ft 104 kts 244°
2026-05-07 22:08 -23.37778 -44.49571 7949 ft 104 kts 243°
2026-05-07 22:08 -23.38142 -44.50239 7958 ft 102 kts 242°
2026-05-07 22:08 -23.38501 -44.50900 7944 ft 102 kts 242°
2026-05-07 22:09 -23.38861 -44.51559 7940 ft 101 kts 242°
2026-05-07 22:09 -23.39218 -44.52213 7941 ft 100 kts 242°
2026-05-07 22:09 -23.39574 -44.52863 7942 ft 100 kts 242°
2026-05-07 22:09 -23.39928 -44.53514 7936 ft 101 kts 243°
2026-05-07 22:10 -23.40287 -44.54171 7949 ft 101 kts 243°
2026-05-07 22:10 -23.40646 -44.54828 7954 ft 102 kts 243°
2026-05-07 22:10 -23.41006 -44.55491 7954 ft 102 kts 243°
2026-05-07 22:10 -23.41369 -44.56158 7953 ft 103 kts 243°
2026-05-07 22:11 -23.41732 -44.56829 7952 ft 103 kts 243°
2026-05-07 22:11 -23.42097 -44.57501 7951 ft 103 kts 243°
2026-05-07 22:11 -23.42460 -44.58172 7952 ft 103 kts 243°
2026-05-07 22:11 -23.42823 -44.58844 7952 ft 103 kts 243°
2026-05-07 22:12 -23.43187 -44.59517 7951 ft 103 kts 243°
2026-05-07 22:12 -23.43551 -44.60190 7951 ft 103 kts 243°
2026-05-07 22:12 -23.43914 -44.60863 7951 ft 103 kts 243°
2026-05-07 22:12 -23.44278 -44.61537 7951 ft 103 kts 243°
2026-05-07 22:13 -23.44642 -44.62210 7951 ft 103 kts 243°
2026-05-07 22:13 -23.45005 -44.62882 7951 ft 103 kts 243°
2026-05-07 22:13 -23.45368 -44.63555 7951 ft 103 kts 243°
2026-05-07 22:13 -23.45732 -44.64228 7951 ft 103 kts 243°
2026-05-07 22:14 -23.46096 -44.64902 7951 ft 103 kts 243°
2026-05-07 22:14 -23.46454 -44.65580 7951 ft 103 kts 244°
2026-05-07 22:14 -23.46803 -44.66254 7951 ft 103 kts 244°
2026-05-07 22:14 -23.47155 -44.66930 7952 ft 103 kts 244°
2026-05-07 22:15 -23.47511 -44.67618 7951 ft 103 kts 244°
2026-05-07 22:15 -23.47863 -44.68298 7951 ft 103 kts 244°
2026-05-07 22:15 -23.48214 -44.68976 7951 ft 103 kts 244°
2026-05-07 22:15 -23.48565 -44.69656 7951 ft 103 kts 244°
2026-05-07 22:16 -23.48918 -44.70337 7951 ft 103 kts 244°
2026-05-07 22:16 -23.49269 -44.71017 7951 ft 103 kts 244°
2026-05-07 22:16 -23.49620 -44.71697 7952 ft 103 kts 244°
2026-05-07 22:16 -23.49974 -44.72376 7952 ft 103 kts 243°
2026-05-07 22:17 -23.50328 -44.73052 7951 ft 103 kts 244°
2026-05-07 22:17 -23.50686 -44.73731 7952 ft 103 kts 243°
2026-05-07 22:17 -23.51042 -44.74407 7952 ft 103 kts 244°
2026-05-07 22:17 -23.51402 -44.75083 7952 ft 103 kts 243°
2026-05-07 22:18 -23.51758 -44.75760 7952 ft 103 kts 244°
2026-05-07 22:18 -23.52475 -44.77108 7962 ft 102 kts 241°
2026-05-07 22:18 -23.52822 -44.77775 7960 ft 102 kts 241°
2026-05-07 22:19 -23.53172 -44.78443 7960 ft 101 kts 241°
2026-05-07 22:19 -23.53520 -44.79106 7961 ft 101 kts 241°
2026-05-07 22:19 -23.53871 -44.79770 7962 ft 101 kts 241°
2026-05-07 22:19 -23.54221 -44.80431 7962 ft 101 kts 241°
2026-05-07 22:20 -23.54574 -44.81095 7962 ft 101 kts 241°
2026-05-07 22:20 -23.54918 -44.81760 7962 ft 101 kts 242°
2026-05-07 22:20 -23.55260 -44.82428 7962 ft 101 kts 242°
2026-05-07 22:20 -23.55351 -44.82607 7962 ft 101 kts 242°
2026-05-07 22:21 -23.55464 -44.82826 7962 ft 101 kts 242°
2026-05-07 22:21 -23.55810 -44.83498 7953 ft 103 kts 244°
2026-05-07 22:21 -23.56156 -44.84178 7955 ft 103 kts 244°
2026-05-07 22:21 -23.56503 -44.84857 7954 ft 103 kts 244°
2026-05-07 22:22 -23.56849 -44.85537 7952 ft 103 kts 244°
2026-05-07 22:22 -23.57197 -44.86220 7952 ft 103 kts 244°
2026-05-07 22:22 -23.57546 -44.86903 7953 ft 103 kts 244°
2026-05-07 22:22 -23.57893 -44.87583 7953 ft 103 kts 244°
2026-05-07 22:23 -23.58242 -44.88266 7952 ft 103 kts 244°
2026-05-07 22:23 -23.58592 -44.88947 7951 ft 103 kts 244°
2026-05-07 22:23 -23.58943 -44.89630 7951 ft 103 kts 244°
2026-05-07 22:23 -23.59294 -44.90311 7952 ft 103 kts 244°
2026-05-07 22:24 -23.59645 -44.90992 7952 ft 103 kts 244°
2026-05-07 22:24 -23.59996 -44.91673 7952 ft 103 kts 244°
2026-05-07 22:24 -23.60346 -44.92354 7952 ft 103 kts 244°
2026-05-07 22:24 -23.60697 -44.93035 7952 ft 103 kts 244°
2026-05-07 22:25 -23.61076 -44.93657 7953 ft 104 kts 236°
2026-05-07 22:25 -23.61536 -44.94266 7953 ft 105 kts 234°
2026-05-07 22:25 -23.62003 -44.94875 7951 ft 105 kts 234°
2026-05-07 22:25 -23.62467 -44.95481 7951 ft 105 kts 234°
2026-05-07 22:26 -23.62933 -44.96090 7951 ft 105 kts 234°
2026-05-07 22:26 -23.63399 -44.96698 7951 ft 105 kts 234°
2026-05-07 22:26 -23.63865 -44.97306 7951 ft 105 kts 234°
2026-05-07 22:26 -23.64329 -44.97910 7952 ft 105 kts 234°
2026-05-07 22:27 -23.64792 -44.98515 7964 ft 103 kts 234°
2026-05-07 22:27 -23.65251 -44.99112 7972 ft 102 kts 234°
2026-05-07 22:27 -23.65706 -44.99704 7977 ft 102 kts 234°
2026-05-07 22:27 -23.66161 -45.00296 7986 ft 101 kts 234°
2026-05-07 22:28 -23.66609 -45.00871 8010 ft 99 kts 234°
2026-05-07 22:28 -23.67045 -45.01446 8020 ft 98 kts 235°
2026-05-07 22:28 -23.67482 -45.02020 8024 ft 99 kts 234°
2026-05-07 22:28 -23.67927 -45.02591 8024 ft 99 kts 234°
2026-05-07 22:29 -23.68374 -45.03165 8024 ft 100 kts 234°
2026-05-07 22:29 -23.68822 -45.03740 8023 ft 100 kts 234°
2026-05-07 22:29 -23.69269 -45.04316 8022 ft 100 kts 234°
2026-05-07 22:29 -23.69718 -45.04894 8022 ft 100 kts 234°
2026-05-07 22:30 -23.70167 -45.05471 8022 ft 100 kts 234°
2026-05-07 22:30 -23.70615 -45.06048 8022 ft 100 kts 234°
2026-05-07 22:30 -23.71063 -45.06626 8022 ft 100 kts 234°
2026-05-07 22:30 -23.71510 -45.07202 8022 ft 100 kts 234°
2026-05-07 22:31 -23.71958 -45.07780 8022 ft 100 kts 234°
2026-05-07 22:31 -23.72407 -45.08358 8022 ft 100 kts 234°
2026-05-07 22:31 -23.72855 -45.08935 8022 ft 100 kts 234°
2026-05-07 22:31 -23.73301 -45.09512 8025 ft 100 kts 233°
2026-05-07 22:32 -23.73748 -45.10091 8017 ft 100 kts 233°
2026-05-07 22:32 -23.74193 -45.10669 8015 ft 100 kts 233°
2026-05-07 22:32 -23.74638 -45.11249 8015 ft 100 kts 233°
2026-05-07 22:32 -23.75080 -45.11827 8016 ft 99 kts 232°
2026-05-07 22:33 -23.75523 -45.12404 8015 ft 99 kts 232°
2026-05-07 22:33 -23.75966 -45.12980 8014 ft 99 kts 232°
2026-05-07 22:33 -23.76407 -45.13554 8015 ft 99 kts 232°
2026-05-07 22:33 -23.76849 -45.14128 8016 ft 99 kts 232°
2026-05-07 22:34 -23.77291 -45.14703 8017 ft 99 kts 232°
2026-05-07 22:34 -23.77732 -45.15277 8017 ft 99 kts 232°
2026-05-07 22:34 -23.78172 -45.15851 8017 ft 99 kts 232°
2026-05-07 22:34 -23.78613 -45.16425 8017 ft 99 kts 232°
2026-05-07 22:35 -23.79053 -45.16997 8017 ft 99 kts 232°
2026-05-07 22:35 -23.79493 -45.17577 8006 ft 100 kts 232°
2026-05-07 22:35 -23.79934 -45.18160 8001 ft 100 kts 232°
2026-05-07 22:35 -23.80374 -45.18742 7999 ft 100 kts 232°
2026-05-07 22:36 -23.80813 -45.19325 7998 ft 99 kts 232°
2026-05-07 22:36 -23.81256 -45.19900 7999 ft 99 kts 231°
2026-05-07 22:36 -23.81704 -45.20472 7998 ft 99 kts 231°
2026-05-07 22:36 -23.82149 -45.21044 8000 ft 99 kts 231°
2026-05-07 22:37 -23.82589 -45.21618 8003 ft 99 kts 231°
2026-05-07 22:37 -23.83027 -45.22191 8003 ft 99 kts 231°
2026-05-07 22:37 -23.83466 -45.22766 8003 ft 99 kts 231°
2026-05-07 22:37 -23.83903 -45.23341 8003 ft 99 kts 231°
2026-05-07 22:38 -23.84344 -45.23916 8004 ft 99 kts 231°
2026-05-07 22:38 -23.84788 -45.24485 8005 ft 99 kts 230°
2026-05-07 22:38 -23.85234 -45.25056 8005 ft 99 kts 230°
2026-05-07 22:38 -23.85666 -45.25611 8004 ft 99 kts 230°
2026-05-07 22:39 -23.86118 -45.26190 8004 ft 99 kts 230°
2026-05-07 22:39 -23.86569 -45.26771 8004 ft 99 kts 230°
2026-05-07 22:39 -23.87015 -45.27345 8004 ft 99 kts 230°
2026-05-07 22:39 -23.87449 -45.27904 8004 ft 99 kts 230°
2026-05-07 22:40 -23.87905 -45.28491 8004 ft 99 kts 230°
2026-05-07 22:40 -23.88349 -45.29063 8002 ft 99 kts 230°
2026-05-07 22:40 -23.88795 -45.29639 8000 ft 99 kts 230°
2026-05-07 22:40 -23.89241 -45.30214 8000 ft 99 kts 230°
2026-05-07 22:41 -23.89686 -45.30787 8000 ft 99 kts 230°
2026-05-07 22:41 -23.90131 -45.31362 8000 ft 99 kts 230°
2026-05-07 22:41 -23.90576 -45.31936 8000 ft 99 kts 230°
2026-05-07 22:41 -23.91019 -45.32511 8000 ft 99 kts 229°
2026-05-07 22:42 -23.91463 -45.33088 8002 ft 99 kts 229°
2026-05-07 22:42 -23.91910 -45.33664 8002 ft 100 kts 229°
2026-05-07 22:42 -23.92363 -45.34238 8001 ft 100 kts 229°
2026-05-07 22:42 -23.92817 -45.34812 8001 ft 100 kts 228°
2026-05-07 22:43 -23.93270 -45.35388 8001 ft 100 kts 228°
2026-05-07 22:43 -23.93718 -45.35969 8002 ft 100 kts 229°
2026-05-07 22:43 -23.94173 -45.36547 8003 ft 101 kts 227°
2026-05-07 22:43 -23.94631 -45.37123 8003 ft 101 kts 227°
2026-05-07 22:44 -23.95091 -45.37700 8002 ft 101 kts 227°
2026-05-07 22:44 -23.95552 -45.38279 8002 ft 101 kts 227°
2026-05-07 22:44 -23.96011 -45.38856 8002 ft 101 kts 227°
2026-05-07 22:44 -23.96472 -45.39435 8002 ft 101 kts 227°
2026-05-07 22:45 -23.96932 -45.40014 8002 ft 101 kts 227°
2026-05-07 22:45 -23.97388 -45.40595 8002 ft 101 kts 228°
2026-05-07 22:45 -23.97844 -45.41178 8002 ft 101 kts 228°
2026-05-07 22:45 -23.98305 -45.41756 8002 ft 101 kts 227°
2026-05-07 22:46 -23.98766 -45.42334 8002 ft 101 kts 227°
2026-05-07 22:46 -23.99228 -45.42912 8002 ft 101 kts 227°
2026-05-07 22:46 -23.99689 -45.43492 8000 ft 101 kts 227°
2026-05-07 22:46 -24.00147 -45.44075 8001 ft 101 kts 227°
2026-05-07 22:47 -24.00605 -45.44660 8002 ft 102 kts 227°
2026-05-07 22:47 -24.01063 -45.45247 8001 ft 102 kts 227°
2026-05-07 22:47 -24.01523 -45.45836 8000 ft 102 kts 227°
2026-05-07 22:47 -24.01982 -45.46426 8000 ft 102 kts 227°
2026-05-07 22:48 -24.02442 -45.47018 8000 ft 102 kts 227°
2026-05-07 22:48 -24.02908 -45.47611 7998 ft 103 kts 226°
2026-05-07 22:48 -24.03375 -45.48204 8000 ft 103 kts 226°
2026-05-07 22:48 -24.03842 -45.48798 8001 ft 103 kts 226°
2026-05-07 22:49 -24.04311 -45.49395 8001 ft 104 kts 226°
2026-05-07 22:49 -24.04780 -45.49993 8000 ft 104 kts 226°
2026-05-07 22:49 -24.05249 -45.50591 8000 ft 104 kts 226°
2026-05-07 22:49 -24.05718 -45.51190 8000 ft 104 kts 226°
2026-05-07 22:50 -24.06188 -45.51790 8000 ft 104 kts 226°
2026-05-07 22:50 -24.06658 -45.52389 8000 ft 104 kts 226°
2026-05-07 22:50 -24.07128 -45.52990 8000 ft 104 kts 226°
2026-05-07 22:50 -24.07587 -45.53576 8000 ft 104 kts 226°
2026-05-07 22:51 -24.08068 -45.54190 8000 ft 104 kts 226°
2026-05-07 22:51 -24.08538 -45.54792 7998 ft 105 kts 226°
2026-05-07 22:51 -24.09008 -45.55396 8000 ft 105 kts 226°
2026-05-07 22:51 -24.09479 -45.56003 8000 ft 105 kts 226°
2026-05-07 22:52 -24.09953 -45.56605 8001 ft 105 kts 226°
2026-05-07 22:52 -24.10435 -45.57204 8000 ft 105 kts 225°
2026-05-07 22:52 -24.10917 -45.57803 7999 ft 105 kts 225°
2026-05-07 22:52 -24.11398 -45.58403 8000 ft 105 kts 225°
2026-05-07 22:53 -24.11881 -45.59005 7998 ft 106 kts 225°
2026-05-07 22:53 -24.12365 -45.59610 8000 ft 106 kts 225°
2026-05-07 22:53 -24.12849 -45.60213 8000 ft 106 kts 225°
2026-05-07 22:53 -24.13332 -45.60817 7999 ft 106 kts 226°
2026-05-07 22:54 -24.13817 -45.61423 7999 ft 106 kts 226°
2026-05-07 22:54 -24.14302 -45.62029 7999 ft 106 kts 226°
2026-05-07 22:54 -24.14787 -45.62635 7999 ft 106 kts 226°
2026-05-07 22:54 -24.15273 -45.63242 7999 ft 106 kts 226°
2026-05-07 22:55 -24.15757 -45.63847 7999 ft 106 kts 226°
2026-05-07 22:55 -24.16243 -45.64454 7999 ft 106 kts 226°
2026-05-07 22:55 -24.16728 -45.65060 7999 ft 106 kts 226°
2026-05-07 22:55 -24.17213 -45.65666 7998 ft 106 kts 226°
2026-05-07 22:56 -24.17698 -45.66277 8000 ft 107 kts 226°
2026-05-07 22:56 -24.18185 -45.66889 8001 ft 107 kts 226°
2026-05-07 22:56 -24.18672 -45.67502 8001 ft 107 kts 226°
2026-05-07 22:56 -24.19160 -45.68117 8001 ft 107 kts 226°
2026-05-07 22:57 -24.19650 -45.68733 8000 ft 108 kts 226°
2026-05-07 22:57 -24.20142 -45.69352 8000 ft 108 kts 226°
2026-05-07 22:57 -24.20634 -45.69972 8001 ft 108 kts 226°
2026-05-07 22:57 -24.21127 -45.70592 7996 ft 109 kts 226°
2026-05-07 22:58 -24.21631 -45.71217 7999 ft 110 kts 226°
2026-05-07 22:58 -24.22137 -45.71843 8002 ft 110 kts 226°
2026-05-07 22:58 -24.22646 -45.72474 8003 ft 111 kts 226°
2026-05-07 22:58 -24.23157 -45.73105 8002 ft 111 kts 226°
2026-05-07 22:59 -24.23668 -45.73738 8001 ft 111 kts 226°
2026-05-07 22:59 -24.24182 -45.74373 8000 ft 112 kts 226°
2026-05-07 22:59 -24.24695 -45.75008 8000 ft 112 kts 226°
2026-05-07 22:59 -24.25209 -45.75643 8000 ft 112 kts 226°
2026-05-07 23:00 -24.25722 -45.76278 8000 ft 112 kts 226°
2026-05-07 23:00 -24.26232 -45.76912 8004 ft 111 kts 226°
2026-05-07 23:00 -24.26739 -45.77547 8002 ft 111 kts 226°
2026-05-07 23:00 -24.27244 -45.78181 8002 ft 111 kts 226°
2026-05-07 23:01 -24.27749 -45.78815 8003 ft 111 kts 226°
2026-05-07 23:01 -24.28253 -45.79448 8004 ft 110 kts 226°
2026-05-07 23:01 -24.28756 -45.80081 8003 ft 110 kts 226°
2026-05-07 23:01 -24.29260 -45.80714 8003 ft 110 kts 226°
2026-05-07 23:02 -24.29764 -45.81348 8003 ft 110 kts 226°
2026-05-07 23:02 -24.30266 -45.81980 8003 ft 110 kts 226°
2026-05-07 23:02 -24.30769 -45.82614 8004 ft 110 kts 226°
2026-05-07 23:02 -24.31271 -45.83247 8004 ft 110 kts 226°
2026-05-07 23:03 -24.31774 -45.83882 8003 ft 110 kts 226°
2026-05-07 23:03 -24.32275 -45.84515 8004 ft 110 kts 226°
2026-05-07 23:03 -24.32777 -45.85148 8004 ft 110 kts 226°
2026-05-07 23:03 -24.33279 -45.85782 8004 ft 110 kts 226°
2026-05-07 23:04 -24.33783 -45.86414 8004 ft 110 kts 225°
2026-05-07 23:04 -24.34293 -45.87038 8004 ft 110 kts 225°
2026-05-07 23:04 -24.34805 -45.87662 8003 ft 110 kts 225°
2026-05-07 23:04 -24.35310 -45.88295 8003 ft 110 kts 226°
2026-05-07 23:05 -24.35818 -45.88924 8004 ft 110 kts 225°
2026-05-07 23:05 -24.36330 -45.89548 8003 ft 111 kts 225°
2026-05-07 23:05 -24.36844 -45.90172 8003 ft 111 kts 225°
2026-05-07 23:05 -24.37355 -45.90800 8003 ft 111 kts 225°
2026-05-07 23:06 -24.37867 -45.91429 8003 ft 111 kts 225°
2026-05-07 23:06 -24.38376 -45.92058 8003 ft 111 kts 225°
2026-05-07 23:06 -24.38889 -45.92687 8002 ft 111 kts 225°
2026-05-07 23:06 -24.39400 -45.93318 8003 ft 111 kts 225°
2026-05-07 23:07 -24.39911 -45.93949 8001 ft 111 kts 226°
2026-05-07 23:07 -24.40427 -45.94585 7999 ft 112 kts 226°
2026-05-07 23:07 -24.40945 -45.95221 8001 ft 112 kts 226°
2026-05-07 23:07 -24.41465 -45.95860 8000 ft 113 kts 226°
2026-05-07 23:08 -24.41986 -45.96500 7999 ft 113 kts 226°
2026-05-07 23:08 -24.42507 -45.97140 7999 ft 113 kts 226°
2026-05-07 23:08 -24.43029 -45.97781 7999 ft 113 kts 226°
2026-05-07 23:08 -24.43549 -45.98421 8001 ft 112 kts 225°
2026-05-07 23:09 -24.44067 -45.99054 8003 ft 112 kts 225°
2026-05-07 23:09 -24.44586 -45.99684 8001 ft 111 kts 225°
2026-05-07 23:09 -24.45104 -46.00313 8002 ft 111 kts 225°
2026-05-07 23:09 -24.45620 -46.00941 8003 ft 111 kts 225°
2026-05-07 23:10 -24.46134 -46.01567 8004 ft 111 kts 225°
2026-05-07 23:10 -24.46648 -46.02193 8004 ft 111 kts 225°
2026-05-07 23:10 -24.47160 -46.02817 8004 ft 110 kts 225°
2026-05-07 23:10 -24.47674 -46.03444 8004 ft 110 kts 225°
2026-05-07 23:11 -24.48185 -46.04067 8004 ft 110 kts 225°
2026-05-07 23:11 -24.48697 -46.04691 8004 ft 110 kts 225°
2026-05-07 23:11 -24.49208 -46.05316 8004 ft 110 kts 225°
2026-05-07 23:11 -24.49719 -46.05941 8005 ft 110 kts 225°
2026-05-07 23:12 -24.50229 -46.06564 8005 ft 110 kts 225°
2026-05-07 23:12 -24.50739 -46.07188 8004 ft 110 kts 225°
2026-05-07 23:12 -24.51248 -46.07811 8005 ft 110 kts 225°
2026-05-07 23:12 -24.51758 -46.08434 8005 ft 110 kts 225°
2026-05-07 23:13 -24.52266 -46.09056 8005 ft 110 kts 225°
2026-05-07 23:13 -24.52776 -46.09680 8005 ft 110 kts 225°
2026-05-07 23:13 -24.53285 -46.10302 8005 ft 110 kts 225°
2026-05-07 23:13 -24.53794 -46.10926 8005 ft 110 kts 225°
2026-05-07 23:14 -24.54303 -46.11549 8005 ft 110 kts 225°
2026-05-07 23:14 -24.54811 -46.12171 8005 ft 110 kts 225°
2026-05-07 23:14 -24.55318 -46.12793 8005 ft 110 kts 225°
2026-05-07 23:14 -24.55826 -46.13415 8005 ft 110 kts 225°
2026-05-07 23:15 -24.56333 -46.14037 8005 ft 110 kts 225°
2026-05-07 23:15 -24.56841 -46.14659 8005 ft 109 kts 225°
2026-05-07 23:15 -24.57347 -46.15281 8005 ft 109 kts 225°
2026-05-07 23:15 -24.57854 -46.15903 8006 ft 109 kts 225°
2026-05-07 23:16 -24.58359 -46.16523 8006 ft 109 kts 225°
2026-05-07 23:16 -24.58865 -46.17143 8006 ft 109 kts 225°
2026-05-07 23:16 -24.59372 -46.17765 8004 ft 110 kts 225°
2026-05-07 23:16 -24.59880 -46.18387 8006 ft 110 kts 225°
2026-05-07 23:17 -24.60388 -46.19010 8006 ft 110 kts 225°
2026-05-07 23:17 -24.60897 -46.19633 8005 ft 110 kts 225°
2026-05-07 23:17 -24.61403 -46.20254 8009 ft 109 kts 225°
2026-05-07 23:17 -24.61907 -46.20873 8006 ft 109 kts 225°
2026-05-07 23:18 -24.62413 -46.21488 8006 ft 108 kts 224°
2026-05-07 23:18 -24.62922 -46.22094 8007 ft 108 kts 224°
2026-05-07 23:18 -24.63430 -46.22697 8008 ft 108 kts 224°
2026-05-07 23:18 -24.63938 -46.23301 8008 ft 108 kts 224°
2026-05-07 23:19 -24.64446 -46.23904 8008 ft 108 kts 224°
2026-05-07 23:19 -24.64954 -46.24508 8008 ft 108 kts 224°
2026-05-07 23:19 -24.65461 -46.25110 8008 ft 108 kts 224°
2026-05-07 23:19 -24.65967 -46.25711 8008 ft 107 kts 224°
2026-05-07 23:20 -24.66473 -46.26314 8008 ft 107 kts 224°
2026-05-07 23:20 -24.66975 -46.26919 8009 ft 107 kts 224°
2026-05-07 23:20 -24.67479 -46.27518 8009 ft 107 kts 224°
2026-05-07 23:20 -24.67984 -46.28120 8008 ft 107 kts 224°
2026-05-07 23:21 -24.68486 -46.28724 8008 ft 107 kts 224°
2026-05-07 23:21 -24.68989 -46.29323 8009 ft 107 kts 224°
2026-05-07 23:21 -24.69492 -46.29926 8008 ft 107 kts 224°
2026-05-07 23:21 -24.69995 -46.30527 8009 ft 107 kts 224°
2026-05-07 23:22 -24.70498 -46.31127 8009 ft 107 kts 224°
2026-05-07 23:22 -24.70998 -46.31729 8009 ft 107 kts 224°
2026-05-07 23:22 -24.71501 -46.32327 8009 ft 107 kts 224°
2026-05-07 23:22 -24.72000 -46.32930 8009 ft 107 kts 224°
2026-05-07 23:23 -24.72503 -46.33530 8009 ft 107 kts 224°
2026-05-07 23:23 -24.73003 -46.34133 8010 ft 107 kts 224°
2026-05-07 23:23 -24.73503 -46.34733 8009 ft 107 kts 225°
2026-05-07 23:23 -24.74001 -46.35333 8010 ft 107 kts 224°
2026-05-07 23:24 -24.74500 -46.35932 8009 ft 107 kts 225°
2026-05-07 23:24 -24.74998 -46.36532 8010 ft 106 kts 224°
2026-05-07 23:24 -24.75496 -46.37133 8010 ft 106 kts 225°
2026-05-07 23:24 -24.75994 -46.37729 8010 ft 106 kts 224°
2026-05-07 23:25 -24.76490 -46.38330 8010 ft 106 kts 224°
2026-05-07 23:25 -24.76990 -46.38926 8010 ft 106 kts 224°
2026-05-07 23:25 -24.77485 -46.39525 8010 ft 106 kts 224°
2026-05-07 23:25 -24.77984 -46.40119 8010 ft 106 kts 224°
2026-05-07 23:26 -24.78479 -46.40718 8011 ft 106 kts 224°
2026-05-07 23:26 -24.78971 -46.41315 8013 ft 105 kts 225°
2026-05-07 23:26 -24.79460 -46.41911 8011 ft 105 kts 225°
2026-05-07 23:26 -24.79948 -46.42507 8011 ft 105 kts 225°
2026-05-07 23:27 -24.80924 -46.43697 8012 ft 105 kts 225°
2026-05-07 23:27 -24.81411 -46.44291 8012 ft 105 kts 225°
2026-05-07 23:27 -24.81897 -46.44883 8012 ft 105 kts 225°
2026-05-07 23:28 -24.82386 -46.45475 8012 ft 104 kts 224°
2026-05-07 23:28 -24.82876 -46.46064 8012 ft 104 kts 224°
2026-05-07 23:28 -24.83364 -46.46652 8012 ft 104 kts 225°
2026-05-07 23:28 -24.83854 -46.47239 8013 ft 104 kts 224°
2026-05-07 23:29 -24.84343 -46.47829 8012 ft 104 kts 225°
2026-05-07 23:29 -24.84832 -46.48414 8013 ft 104 kts 224°
2026-05-07 23:29 -24.85321 -46.49002 8013 ft 104 kts 225°
2026-05-07 23:29 -24.85811 -46.49587 8013 ft 104 kts 224°
2026-05-07 23:30 -24.86298 -46.50174 8013 ft 104 kts 225°
2026-05-07 23:30 -24.86791 -46.50758 8013 ft 104 kts 224°
2026-05-07 23:30 -24.87279 -46.51344 8013 ft 104 kts 224°
2026-05-07 23:30 -24.87767 -46.51929 8013 ft 104 kts 225°
2026-05-07 23:31 -24.88258 -46.52512 8013 ft 104 kts 225°
2026-05-07 23:31 -24.88745 -46.53097 8013 ft 104 kts 224°
2026-05-07 23:31 -24.89235 -46.53682 8013 ft 104 kts 225°
2026-05-07 23:31 -24.89725 -46.54265 8013 ft 104 kts 224°
2026-05-07 23:32 -24.90212 -46.54852 8013 ft 104 kts 225°
2026-05-07 23:32 -24.90702 -46.55434 8013 ft 104 kts 225°
2026-05-07 23:32 -24.91188 -46.56020 8013 ft 104 kts 225°
2026-05-07 23:32 -24.91678 -46.56602 8013 ft 104 kts 225°
2026-05-07 23:33 -24.92163 -46.57188 8013 ft 104 kts 225°
2026-05-07 23:33 -24.92653 -46.57769 8013 ft 104 kts 225°
2026-05-07 23:33 -24.93138 -46.58354 8014 ft 104 kts 225°
2026-05-07 23:33 -24.93626 -46.58934 8014 ft 104 kts 225°
2026-05-07 23:34 -24.94112 -46.59519 8014 ft 104 kts 225°
2026-05-07 23:34 -24.94600 -46.60099 8014 ft 104 kts 225°
2026-05-07 23:34 -24.95086 -46.60684 8014 ft 103 kts 225°
2026-05-07 23:34 -24.95574 -46.61261 8014 ft 103 kts 225°
2026-05-07 23:35 -24.96059 -46.61844 8014 ft 103 kts 224°
2026-05-07 23:35 -24.96546 -46.62423 8015 ft 103 kts 225°
2026-05-07 23:35 -24.97030 -46.63004 8008 ft 104 kts 225°
2026-05-07 23:35 -24.97523 -46.63588 8001 ft 104 kts 224°
2026-05-07 23:36 -24.98013 -46.64173 7999 ft 104 kts 225°
2026-05-07 23:36 -24.98499 -46.64753 8000 ft 103 kts 225°
2026-05-07 23:36 -24.98985 -46.65332 7999 ft 103 kts 225°
2026-05-07 23:36 -24.99470 -46.65909 8000 ft 103 kts 225°
2026-05-07 23:37 -24.99952 -46.66482 8001 ft 103 kts 225°
2026-05-07 23:37 -25.00440 -46.67056 8001 ft 103 kts 225°
2026-05-07 23:37 -25.00914 -46.67642 8000 ft 103 kts 226°
2026-05-07 23:37 -25.01380 -46.68237 8001 ft 103 kts 227°
2026-05-07 23:38 -25.01844 -46.68831 8000 ft 103 kts 227°
2026-05-07 23:38 -25.02308 -46.69425 8000 ft 103 kts 227°
2026-05-07 23:38 -25.02773 -46.70019 8000 ft 102 kts 227°
2026-05-07 23:38 -25.03237 -46.70613 8001 ft 102 kts 227°
2026-05-07 23:39 -25.03701 -46.71205 8000 ft 102 kts 227°
2026-05-07 23:39 -25.04166 -46.71799 8000 ft 102 kts 227°
2026-05-07 23:39 -25.04631 -46.72392 8000 ft 102 kts 227°
2026-05-07 23:39 -25.05094 -46.72983 8001 ft 102 kts 227°
2026-05-07 23:40 -25.05558 -46.73575 8000 ft 102 kts 227°
2026-05-07 23:40 -25.06023 -46.74167 8000 ft 102 kts 227°
2026-05-07 23:40 -25.06487 -46.74758 8000 ft 102 kts 227°
2026-05-07 23:40 -25.06952 -46.75351 8000 ft 102 kts 227°
2026-05-07 23:41 -25.07416 -46.75942 8000 ft 102 kts 227°
2026-05-07 23:41 -25.07881 -46.76533 7999 ft 102 kts 227°
2026-05-07 23:41 -25.08347 -46.77125 7999 ft 102 kts 227°
2026-05-07 23:41 -25.08812 -46.77715 7998 ft 102 kts 227°
2026-05-07 23:42 -25.09277 -46.78306 7998 ft 102 kts 227°
2026-05-07 23:42 -25.09744 -46.78896 7997 ft 102 kts 227°
2026-05-07 23:42 -25.10210 -46.79485 7996 ft 102 kts 227°
2026-05-07 23:42 -25.10677 -46.80074 7996 ft 102 kts 227°
2026-05-07 23:43 -25.11141 -46.80666 7995 ft 102 kts 227°
2026-05-07 23:43 -25.11599 -46.81263 7995 ft 102 kts 228°
2026-05-07 23:43 -25.12056 -46.81859 7994 ft 102 kts 228°
2026-05-07 23:43 -25.12515 -46.82456 7993 ft 102 kts 228°
2026-05-07 23:44 -25.12973 -46.83051 7992 ft 102 kts 228°
2026-05-07 23:44 -25.13431 -46.83646 7992 ft 102 kts 228°
2026-05-07 23:44 -25.13891 -46.84240 7991 ft 102 kts 228°
2026-05-07 23:44 -25.14352 -46.84832 7987 ft 102 kts 228°
2026-05-07 23:45 -25.14814 -46.85425 7987 ft 102 kts 227°
2026-05-07 23:45 -25.15275 -46.86016 7987 ft 102 kts 227°
2026-05-07 23:45 -25.15736 -46.86607 7987 ft 102 kts 227°
2026-05-07 23:45 -25.16197 -46.87199 7987 ft 102 kts 227°
2026-05-07 23:46 -25.16657 -46.87788 7988 ft 102 kts 229°
2026-05-07 23:46 -25.17114 -46.88380 7985 ft 101 kts 229°
2026-05-07 23:46 -25.17570 -46.88971 7984 ft 101 kts 229°
2026-05-07 23:46 -25.18026 -46.89560 7984 ft 101 kts 229°
2026-05-07 23:47 -25.18483 -46.90148 7985 ft 101 kts 229°
2026-05-07 23:47 -25.18938 -46.90735 7985 ft 101 kts 229°
2026-05-07 23:47 -25.19395 -46.91321 7985 ft 101 kts 229°
2026-05-07 23:47 -25.19851 -46.91905 7985 ft 101 kts 229°
2026-05-07 23:48 -25.20309 -46.92490 7985 ft 101 kts 229°
2026-05-07 23:48 -25.20766 -46.93072 7985 ft 101 kts 229°
2026-05-07 23:48 -25.21224 -46.93654 7984 ft 101 kts 229°
2026-05-07 23:48 -25.21683 -46.94236 7984 ft 101 kts 229°
2026-05-07 23:49 -25.22134 -46.94823 7984 ft 101 kts 230°
2026-05-07 23:49 -25.22583 -46.95413 7985 ft 101 kts 230°
2026-05-07 23:49 -25.23033 -46.96001 7984 ft 100 kts 230°
2026-05-07 23:49 -25.23485 -46.96590 7984 ft 100 kts 230°
2026-05-07 23:50 -25.23935 -46.97178 7984 ft 100 kts 230°
2026-05-07 23:50 -25.24384 -46.97763 7984 ft 100 kts 230°
2026-05-07 23:50 -25.24835 -46.98352 7984 ft 100 kts 230°
2026-05-07 23:50 -25.25284 -46.98938 7984 ft 100 kts 230°
2026-05-07 23:51 -25.25735 -46.99527 7984 ft 100 kts 230°
2026-05-07 23:51 -25.26185 -47.00112 7984 ft 100 kts 230°
2026-05-07 23:51 -25.26638 -47.00698 7984 ft 100 kts 230°
2026-05-07 23:51 -25.27090 -47.01284 7984 ft 100 kts 230°
2026-05-07 23:52 -25.27542 -47.01868 7984 ft 100 kts 230°
2026-05-07 23:52 -25.27995 -47.02453 7984 ft 100 kts 230°
2026-05-07 23:52 -25.28448 -47.03035 7983 ft 100 kts 230°
2026-05-07 23:52 -25.28902 -47.03618 7983 ft 100 kts 230°
2026-05-07 23:53 -25.29356 -47.04200 7983 ft 100 kts 230°
2026-05-07 23:53 -25.29811 -47.04781 7983 ft 100 kts 230°
2026-05-07 23:53 -25.30267 -47.05363 7983 ft 100 kts 230°
2026-05-07 23:53 -25.30713 -47.05950 7983 ft 100 kts 231°
2026-05-07 23:54 -25.31160 -47.06540 7983 ft 100 kts 231°
2026-05-07 23:54 -25.31608 -47.07129 7979 ft 100 kts 231°
2026-05-07 23:54 -25.32058 -47.07718 7974 ft 101 kts 231°
2026-05-07 23:54 -25.32508 -47.08308 7973 ft 100 kts 231°
2026-05-07 23:55 -25.32957 -47.08895 7973 ft 100 kts 231°
2026-05-07 23:55 -25.33405 -47.09482 7973 ft 100 kts 231°
2026-05-07 23:55 -25.33853 -47.10069 7972 ft 100 kts 231°
2026-05-07 23:55 -25.34301 -47.10655 7972 ft 100 kts 231°
2026-05-07 23:56 -25.34751 -47.11243 7969 ft 100 kts 232°
2026-05-07 23:56 -25.35200 -47.11831 7959 ft 101 kts 232°
2026-05-07 23:56 -25.35651 -47.12421 7954 ft 101 kts 232°
2026-05-07 23:56 -25.36103 -47.13012 7951 ft 100 kts 232°
2026-05-07 23:57 -25.36550 -47.13596 7949 ft 100 kts 232°
2026-05-07 23:57 -25.37001 -47.14186 7946 ft 100 kts 232°
2026-05-07 23:57 -25.37450 -47.14772 7944 ft 100 kts 232°
2026-05-07 23:57 -25.37899 -47.15357 7941 ft 100 kts 232°
2026-05-07 23:58 -25.38347 -47.15942 7939 ft 100 kts 232°
2026-05-07 23:58 -25.38795 -47.16527 7936 ft 100 kts 232°
2026-05-07 23:58 -25.39243 -47.17111 7934 ft 100 kts 232°
2026-05-07 23:58 -25.39690 -47.17694 7931 ft 100 kts 232°
2026-05-07 23:59 -25.40136 -47.18276 7929 ft 100 kts 232°
2026-05-07 23:59 -25.40586 -47.18859 7925 ft 100 kts 232°
2026-05-07 23:59 -25.41035 -47.19440 7924 ft 99 kts 232°
2026-05-07 23:59 -25.41482 -47.20019 7923 ft 99 kts 232°
2026-05-08 00:00 -25.41929 -47.20600 7923 ft 99 kts 232°
2026-05-08 00:00 -25.42374 -47.21179 7923 ft 99 kts 232°
2026-05-08 00:00 -25.42820 -47.21758 7923 ft 99 kts 232°
2026-05-08 00:00 -25.43265 -47.22335 7923 ft 99 kts 232°
2026-05-08 00:01 -25.43713 -47.22913 7922 ft 99 kts 233°
2026-05-08 00:01 -25.44159 -47.23492 7921 ft 99 kts 233°
2026-05-08 00:01 -25.44603 -47.24076 7921 ft 99 kts 234°
2026-05-08 00:01 -25.45047 -47.24660 7921 ft 100 kts 234°
2026-05-08 00:02 -25.45494 -47.25244 7921 ft 100 kts 234°
2026-05-08 00:02 -25.45938 -47.25833 7921 ft 100 kts 235°
2026-05-08 00:02 -25.46389 -47.26422 7922 ft 101 kts 235°
2026-05-08 00:02 -25.46836 -47.27017 7922 ft 101 kts 236°
2026-05-08 00:03 -25.47287 -47.27613 7922 ft 102 kts 236°
2026-05-08 00:03 -25.47745 -47.28212 7922 ft 102 kts 236°
2026-05-08 00:03 -25.48201 -47.28820 7923 ft 103 kts 237°
2026-05-08 00:03 -25.48660 -47.29431 7923 ft 104 kts 237°
2026-05-08 00:04 -25.49126 -47.30050 7905 ft 108 kts 238°
2026-05-08 00:04 -25.49602 -47.30689 7917 ft 108 kts 238°
2026-05-08 00:04 -25.50082 -47.31333 7921 ft 109 kts 238°
2026-05-08 00:04 -25.50564 -47.31982 7922 ft 110 kts 238°
2026-05-08 00:05 -25.51051 -47.32639 7920 ft 111 kts 238°
2026-05-08 00:05 -25.51541 -47.33295 7918 ft 111 kts 237°
2026-05-08 00:05 -25.52036 -47.33953 7917 ft 111 kts 238°
2026-05-08 00:05 -25.52527 -47.34615 7911 ft 113 kts 237°
2026-05-08 00:06 -25.53024 -47.35285 7918 ft 113 kts 237°
2026-05-08 00:06 -25.53523 -47.35956 7927 ft 113 kts 237°
2026-05-08 00:06 -25.54022 -47.36628 7929 ft 114 kts 237°
2026-05-08 00:06 -25.54524 -47.37306 7929 ft 114 kts 237°
2026-05-08 00:07 -25.55028 -47.37986 7927 ft 115 kts 237°
2026-05-08 00:07 -25.55539 -47.38664 7926 ft 115 kts 236°
2026-05-08 00:07 -25.56056 -47.39341 7926 ft 115 kts 236°
2026-05-08 00:07 -25.56572 -47.40017 7926 ft 115 kts 236°
2026-05-08 00:08 -25.57089 -47.40693 7926 ft 115 kts 236°
2026-05-08 00:08 -25.57434 -47.41144 7926 ft 115 kts 236°
2026-05-08 00:08 -25.58117 -47.42046 7930 ft 115 kts 237°
2026-05-08 00:08 -25.58611 -47.42710 7975 ft 111 kts 237°
2026-05-08 00:09 -25.59090 -47.43353 7996 ft 111 kts 237°
2026-05-08 00:09 -25.59600 -47.44036 8008 ft 112 kts 237°
2026-05-08 00:09 -25.60099 -47.44700 8006 ft 113 kts 237°
2026-05-08 00:09 -25.60601 -47.45368 8004 ft 114 kts 237°
2026-05-08 00:10 -25.61106 -47.46041 8002 ft 114 kts 237°
2026-05-08 00:10 -25.61611 -47.46720 7997 ft 115 kts 237°
2026-05-08 00:10 -25.62118 -47.47401 7997 ft 115 kts 237°
2026-05-08 00:10 -25.62626 -47.48083 7995 ft 115 kts 237°
2026-05-08 00:11 -25.63134 -47.48765 7993 ft 115 kts 237°
2026-05-08 00:11 -25.63643 -47.49448 7992 ft 115 kts 237°
2026-05-08 00:11 -25.64154 -47.50131 7990 ft 115 kts 237°
2026-05-08 00:11 -25.64666 -47.50813 7988 ft 115 kts 237°
2026-05-08 00:12 -25.65177 -47.51494 7987 ft 115 kts 237°
2026-05-08 00:12 -25.65689 -47.52175 7985 ft 115 kts 237°
2026-05-08 00:12 -25.66202 -47.52855 7984 ft 115 kts 237°
2026-05-08 00:12 -25.66714 -47.53533 7982 ft 115 kts 238°
2026-05-08 00:13 -25.67226 -47.54212 7965 ft 115 kts 238°
2026-05-08 00:13 -25.67739 -47.54888 7957 ft 114 kts 238°
2026-05-08 00:13 -25.68240 -47.55566 7954 ft 113 kts 239°
2026-05-08 00:13 -25.68736 -47.56237 7953 ft 113 kts 239°
2026-05-08 00:14 -25.69231 -47.56907 7955 ft 112 kts 239°
2026-05-08 00:14 -25.69723 -47.57571 7956 ft 112 kts 239°
2026-05-08 00:14 -25.70216 -47.58238 7954 ft 112 kts 238°
2026-05-08 00:14 -25.70706 -47.58903 7976 ft 111 kts 238°
2026-05-08 00:15 -25.71201 -47.59564 7986 ft 112 kts 237°
2026-05-08 00:15 -25.71702 -47.60228 7990 ft 113 kts 237°
2026-05-08 00:15 -25.72205 -47.60897 7992 ft 114 kts 237°
2026-05-08 00:15 -25.72710 -47.61572 7992 ft 114 kts 237°
2026-05-08 00:16 -25.73216 -47.62249 7993 ft 114 kts 237°
2026-05-08 00:16 -25.73724 -47.62930 7993 ft 115 kts 237°
2026-05-08 00:16 -25.74230 -47.63609 7994 ft 115 kts 237°
2026-05-08 00:16 -25.74737 -47.64291 7995 ft 115 kts 237°
2026-05-08 00:17 -25.75244 -47.64974 7995 ft 115 kts 237°
2026-05-08 00:17 -25.75749 -47.65656 7997 ft 115 kts 237°
2026-05-08 00:17 -25.76255 -47.66339 7998 ft 115 kts 237°
2026-05-08 00:17 -25.76761 -47.67023 7998 ft 115 kts 237°
2026-05-08 00:18 -25.77268 -47.67708 7998 ft 115 kts 237°
2026-05-08 00:18 -25.77774 -47.68393 7998 ft 115 kts 237°
2026-05-08 00:18 -25.78281 -47.69078 7998 ft 115 kts 237°
2026-05-08 00:18 -25.78787 -47.69762 7998 ft 115 kts 237°
2026-05-08 00:19 -25.79296 -47.70449 7994 ft 115 kts 237°
2026-05-08 00:19 -25.79805 -47.71134 7993 ft 115 kts 237°
2026-05-08 00:19 -25.80314 -47.71818 7992 ft 115 kts 237°
2026-05-08 00:19 -25.80824 -47.72503 7990 ft 115 kts 237°
2026-05-08 00:20 -25.81335 -47.73187 7988 ft 115 kts 237°
2026-05-08 00:20 -25.81846 -47.73869 7987 ft 115 kts 237°
2026-05-08 00:20 -25.82354 -47.74556 7985 ft 115 kts 238°
2026-05-08 00:20 -25.82855 -47.75243 7983 ft 115 kts 238°
2026-05-08 00:21 -25.83357 -47.75932 7982 ft 115 kts 238°
2026-05-08 00:21 -25.83859 -47.76620 7981 ft 115 kts 238°
2026-05-08 00:21 -25.84360 -47.77303 7976 ft 115 kts 239°
2026-05-08 00:21 -25.84864 -47.77990 7959 ft 115 kts 239°
2026-05-08 00:22 -25.85367 -47.78672 7952 ft 114 kts 239°
2026-05-08 00:22 -25.85865 -47.79344 7949 ft 113 kts 239°
2026-05-08 00:22 -25.86361 -47.80012 7948 ft 112 kts 239°
2026-05-08 00:22 -25.86855 -47.80676 7949 ft 111 kts 239°
2026-05-08 00:23 -25.87346 -47.81337 7949 ft 111 kts 238°
2026-05-08 00:23 -25.87834 -47.81999 7957 ft 111 kts 239°
2026-05-08 00:23 -25.88318 -47.82662 7964 ft 111 kts 239°
2026-05-08 00:23 -25.88804 -47.83328 7967 ft 111 kts 239°
2026-05-08 00:24 -25.89289 -47.83996 7968 ft 112 kts 239°
2026-05-08 00:24 -25.89778 -47.84668 7967 ft 112 kts 239°
2026-05-08 00:24 -25.90268 -47.85343 7966 ft 112 kts 239°
2026-05-08 00:24 -25.90758 -47.86015 7964 ft 113 kts 239°
2026-05-08 00:25 -25.91249 -47.86689 7963 ft 113 kts 239°
2026-05-08 00:25 -25.91741 -47.87364 7962 ft 112 kts 239°
2026-05-08 00:25 -25.92230 -47.88035 7962 ft 112 kts 239°
2026-05-08 00:25 -25.92722 -47.88707 7960 ft 112 kts 239°
2026-05-08 00:26 -25.93212 -47.89378 7960 ft 112 kts 239°
2026-05-08 00:26 -25.93702 -47.90048 7962 ft 112 kts 239°
2026-05-08 00:26 -25.94191 -47.90717 7961 ft 112 kts 239°
2026-05-08 00:26 -25.94678 -47.91379 7979 ft 107 kts 240°
2026-05-08 00:27 -25.95129 -47.91993 7943 ft 102 kts 242°
2026-05-08 00:27 -25.95593 -47.92631 7878 ft 110 kts 245°
2026-05-08 00:27 -25.96060 -47.93282 7956 ft 106 kts 245°
2026-05-08 00:27 -25.96521 -47.93921 7998 ft 107 kts 245°
2026-05-08 00:28 -25.96989 -47.94576 8013 ft 110 kts 245°
2026-05-08 00:28 -25.97473 -47.95246 8014 ft 113 kts 245°
2026-05-08 00:28 -25.97968 -47.95932 8009 ft 115 kts 245°
2026-05-08 00:28 -25.98468 -47.96629 8003 ft 116 kts 245°
2026-05-08 00:29 -25.98976 -47.97328 8000 ft 117 kts 244°
2026-05-08 00:29 -25.99490 -47.98027 7998 ft 117 kts 244°
2026-05-08 00:29 -25.99997 -47.98730 7997 ft 117 kts 245°
2026-05-08 00:29 -26.00505 -47.99431 7997 ft 117 kts 244°
2026-05-08 00:30 -26.01011 -48.00133 7996 ft 116 kts 245°
2026-05-08 00:30 -26.01519 -48.00832 7997 ft 116 kts 244°
2026-05-08 00:30 -26.02028 -48.01533 7986 ft 118 kts 244°
2026-05-08 00:30 -26.02542 -48.02239 7981 ft 118 kts 244°
2026-05-08 00:31 -26.03053 -48.02947 7979 ft 118 kts 244°
2026-05-08 00:31 -26.03544 -48.03664 7979 ft 116 kts 246°
2026-05-08 00:31 -26.04025 -48.04385 7979 ft 116 kts 246°
2026-05-08 00:31 -26.04505 -48.05104 7984 ft 115 kts 247°
2026-05-08 00:32 -26.04982 -48.05813 7988 ft 115 kts 246°
2026-05-08 00:32 -26.05457 -48.06519 7989 ft 115 kts 246°
2026-05-08 00:32 -26.05937 -48.07231 7989 ft 115 kts 246°
2026-05-08 00:32 -26.06415 -48.07942 7988 ft 115 kts 246°
2026-05-08 00:33 -26.06893 -48.08652 7987 ft 115 kts 246°
2026-05-08 00:33 -26.07371 -48.09365 7986 ft 115 kts 246°
2026-05-08 00:33 -26.07851 -48.10080 7986 ft 115 kts 246°
2026-05-08 00:33 -26.08326 -48.10790 7996 ft 114 kts 248°
2026-05-08 00:34 -26.08789 -48.11508 7999 ft 114 kts 248°
2026-05-08 00:34 -26.09250 -48.12227 7999 ft 115 kts 248°
2026-05-08 00:34 -26.09711 -48.12950 7997 ft 115 kts 248°
2026-05-08 00:34 -26.10175 -48.13676 7995 ft 115 kts 248°
2026-05-08 00:35 -26.10638 -48.14404 7995 ft 116 kts 248°
2026-05-08 00:35 -26.11102 -48.15132 7994 ft 116 kts 248°
2026-05-08 00:35 -26.11566 -48.15861 7994 ft 116 kts 248°
2026-05-08 00:35 -26.12031 -48.16591 7994 ft 116 kts 248°
2026-05-08 00:36 -26.12494 -48.17319 7992 ft 116 kts 248°
2026-05-08 00:36 -26.12958 -48.18050 7992 ft 116 kts 248°
2026-05-08 00:36 -26.13422 -48.18779 7992 ft 116 kts 248°
2026-05-08 00:36 -26.13886 -48.19510 7991 ft 116 kts 248°
2026-05-08 00:37 -26.14351 -48.20241 7990 ft 116 kts 248°
2026-05-08 00:37 -26.14815 -48.20971 7990 ft 116 kts 248°
2026-05-08 00:37 -26.15279 -48.21702 7989 ft 116 kts 248°
2026-05-08 00:38 -26.16209 -48.23165 7987 ft 116 kts 248°
2026-05-08 00:38 -26.16672 -48.23895 7987 ft 116 kts 248°
2026-05-08 00:38 -26.17136 -48.24624 7986 ft 116 kts 248°
2026-05-08 00:38 -26.17601 -48.25356 7985 ft 116 kts 248°
2026-05-08 00:39 -26.18065 -48.26087 7985 ft 116 kts 248°
2026-05-08 00:39 -26.18529 -48.26816 7985 ft 116 kts 248°
2026-05-08 00:39 -26.18993 -48.27547 7984 ft 116 kts 248°
2026-05-08 00:39 -26.19457 -48.28277 7983 ft 116 kts 248°
2026-05-08 00:40 -26.19922 -48.29010 7975 ft 116 kts 248°
2026-05-08 00:40 -26.20386 -48.29743 7974 ft 116 kts 248°
2026-05-08 00:40 -26.20851 -48.30476 7974 ft 116 kts 248°
2026-05-08 00:40 -26.21316 -48.31208 7974 ft 116 kts 248°
2026-05-08 00:41 -26.21779 -48.31937 7974 ft 116 kts 248°
2026-05-08 00:41 -26.22244 -48.32669 7973 ft 116 kts 248°
2026-05-08 00:41 -26.22708 -48.33399 7972 ft 116 kts 248°
2026-05-08 00:41 -26.23172 -48.34129 7972 ft 116 kts 248°
2026-05-08 00:42 -26.23645 -48.34858 7971 ft 116 kts 248°
2026-05-08 00:42 -26.24114 -48.35587 7971 ft 116 kts 247°
2026-05-08 00:42 -26.24588 -48.36311 7970 ft 116 kts 248°
2026-05-08 00:42 -26.25057 -48.37041 7970 ft 116 kts 247°
2026-05-08 00:43 -26.25531 -48.37767 7969 ft 116 kts 248°
2026-05-08 00:43 -26.26000 -48.38496 7969 ft 116 kts 247°
2026-05-08 00:43 -26.26473 -48.39222 7968 ft 116 kts 248°
2026-05-08 00:43 -26.26943 -48.39951 7968 ft 116 kts 247°
2026-05-08 00:44 -26.27414 -48.40678 7968 ft 116 kts 248°
2026-05-08 00:44 -26.27885 -48.41406 7968 ft 116 kts 247°
2026-05-08 00:44 -26.28355 -48.42133 7967 ft 116 kts 248°
2026-05-08 00:44 -26.28828 -48.42860 7967 ft 116 kts 247°
2026-05-08 00:45 -26.29297 -48.43590 7967 ft 116 kts 248°
2026-05-08 00:45 -26.29769 -48.44315 7967 ft 116 kts 247°
2026-05-08 00:45 -26.30238 -48.45045 7966 ft 116 kts 248°
2026-05-08 00:45 -26.30711 -48.45773 7966 ft 116 kts 247°
2026-05-08 00:46 -26.31179 -48.46500 7965 ft 116 kts 248°
2026-05-08 00:46 -26.31651 -48.47228 7965 ft 116 kts 247°
2026-05-08 00:46 -26.32121 -48.47957 7964 ft 116 kts 248°
2026-05-08 00:46 -26.32593 -48.48684 7964 ft 116 kts 247°
2026-05-08 00:47 -26.33062 -48.49413 7963 ft 116 kts 248°
2026-05-08 00:47 -26.33534 -48.50140 7963 ft 116 kts 247°
2026-05-08 00:47 -26.34003 -48.50870 7962 ft 116 kts 248°
2026-05-08 00:47 -26.34477 -48.51602 7945 ft 120 kts 244°
2026-05-08 00:48 -26.34976 -48.52387 7934 ft 125 kts 240°
2026-05-08 00:48 -26.35484 -48.53172 7964 ft 126 kts 240°
2026-05-08 00:48 -26.35997 -48.53954 8011 ft 121 kts 246°
2026-05-08 00:48 -26.36490 -48.54705 7981 ft 121 kts 247°
2026-05-08 00:49 -26.36981 -48.55463 7956 ft 121 kts 247°
2026-05-08 00:49 -26.37468 -48.56216 7950 ft 119 kts 247°
2026-05-08 00:49 -26.37950 -48.56957 7950 ft 118 kts 247°
2026-05-08 00:49 -26.38423 -48.57693 7953 ft 117 kts 247°
2026-05-08 00:50 -26.38892 -48.58425 7955 ft 116 kts 248°
2026-05-08 00:50 -26.39357 -48.59157 7956 ft 116 kts 248°
2026-05-08 00:50 -26.39821 -48.59889 7956 ft 116 kts 248°
2026-05-08 00:50 -26.40287 -48.60617 7956 ft 116 kts 247°
2026-05-08 00:51 -26.40757 -48.61346 7955 ft 116 kts 248°
2026-05-08 00:51 -26.41226 -48.62072 7955 ft 116 kts 248°
2026-05-08 00:51 -26.41693 -48.62799 7956 ft 116 kts 247°
2026-05-08 00:51 -26.42159 -48.63526 7956 ft 116 kts 248°
2026-05-08 00:52 -26.42628 -48.64254 7954 ft 115 kts 248°
2026-05-08 00:52 -26.43096 -48.64979 7954 ft 116 kts 247°
2026-05-08 00:52 -26.43563 -48.65708 7954 ft 116 kts 248°
2026-05-08 00:52 -26.44030 -48.66432 7954 ft 115 kts 248°
2026-05-08 00:53 -26.44497 -48.67157 7954 ft 115 kts 248°
2026-05-08 00:53 -26.44964 -48.67883 7954 ft 116 kts 247°
2026-05-08 00:53 -26.45430 -48.68610 7953 ft 115 kts 248°
2026-05-08 00:53 -26.45898 -48.69333 7955 ft 115 kts 248°
2026-05-08 00:54 -26.46360 -48.70058 7953 ft 115 kts 248°
2026-05-08 00:54 -26.46825 -48.70779 7952 ft 115 kts 248°
2026-05-08 00:54 -26.47286 -48.71501 7953 ft 114 kts 248°
2026-05-08 00:54 -26.47746 -48.72220 7953 ft 114 kts 248°
2026-05-08 00:55 -26.48204 -48.72937 7952 ft 114 kts 248°
2026-05-08 00:55 -26.48662 -48.73651 7952 ft 113 kts 248°
2026-05-08 00:55 -26.49119 -48.74365 7952 ft 113 kts 248°
2026-05-08 00:55 -26.49576 -48.75076 7953 ft 113 kts 248°
2026-05-08 00:56 -26.49967 -48.75679 7961 ft 111 kts 248°
2026-05-08 00:56 -26.50419 -48.76375 7955 ft 111 kts 248°
2026-05-08 00:56 -26.50869 -48.77064 7955 ft 110 kts 248°
2026-05-08 00:56 -26.51311 -48.77756 7956 ft 109 kts 249°
2026-05-08 00:57 -26.51747 -48.78446 7957 ft 109 kts 249°
2026-05-08 00:57 -26.52183 -48.79136 7958 ft 109 kts 249°
2026-05-08 00:57 -26.52619 -48.79825 7957 ft 109 kts 249°
2026-05-08 00:57 -26.53054 -48.80514 7958 ft 109 kts 249°
2026-05-08 00:58 -26.53489 -48.81203 7958 ft 109 kts 249°
2026-05-08 00:58 -26.53924 -48.81891 7958 ft 109 kts 249°
2026-05-08 00:58 -26.54359 -48.82580 7957 ft 109 kts 249°
2026-05-08 00:58 -26.54805 -48.83276 7948 ft 111 kts 248°
2026-05-08 00:59 -26.55255 -48.83973 7946 ft 111 kts 248°
2026-05-08 00:59 -26.55706 -48.84675 7944 ft 112 kts 248°
2026-05-08 00:59 -26.56158 -48.85378 7943 ft 112 kts 248°
2026-05-08 00:59 -26.56610 -48.86084 7942 ft 112 kts 248°
2026-05-08 01:00 -26.57062 -48.86790 7941 ft 112 kts 248°
2026-05-08 01:00 -26.57515 -48.87500 7938 ft 113 kts 248°
2026-05-08 01:00 -26.57968 -48.88212 7937 ft 113 kts 248°
2026-05-08 01:00 -26.58423 -48.88928 7937 ft 113 kts 248°
2026-05-08 01:01 -26.58876 -48.89642 7936 ft 113 kts 248°
2026-05-08 01:01 -26.59329 -48.90355 7936 ft 113 kts 248°
2026-05-08 01:01 -26.59783 -48.91068 7936 ft 113 kts 248°
2026-05-08 01:01 -26.60237 -48.91783 7936 ft 113 kts 248°
2026-05-08 01:02 -26.60688 -48.92490 7966 ft 110 kts 248°
2026-05-08 01:02 -26.61133 -48.93181 7993 ft 110 kts 248°
2026-05-08 01:02 -26.61578 -48.93871 8003 ft 110 kts 248°
2026-05-08 01:02 -26.62026 -48.94568 8005 ft 111 kts 248°
2026-05-08 01:03 -26.62476 -48.95272 8004 ft 112 kts 248°
2026-05-08 01:03 -26.62927 -48.95980 8002 ft 112 kts 248°
2026-05-08 01:03 -26.63379 -48.96690 8004 ft 112 kts 248°
2026-05-08 01:03 -26.63831 -48.97398 8005 ft 112 kts 248°
2026-05-08 01:04 -26.64280 -48.98102 8007 ft 112 kts 248°
2026-05-08 01:04 -26.64730 -48.98805 8014 ft 110 kts 248°
2026-05-08 01:04 -26.65174 -48.99497 8018 ft 110 kts 248°
2026-05-08 01:04 -26.65619 -49.00189 8020 ft 110 kts 248°
2026-05-08 01:05 -26.66055 -49.00866 8021 ft 110 kts 248°
2026-05-08 01:05 -26.66498 -49.01555 8021 ft 110 kts 248°
2026-05-08 01:05 -26.66943 -49.02247 8019 ft 110 kts 248°
2026-05-08 01:05 -26.67383 -49.02946 8005 ft 111 kts 249°
2026-05-08 01:06 -26.67823 -49.03647 8000 ft 110 kts 249°
2026-05-08 01:06 -26.68263 -49.04349 7998 ft 110 kts 249°
2026-05-08 01:06 -26.68700 -49.05047 7998 ft 110 kts 249°
2026-05-08 01:06 -26.69138 -49.05744 7999 ft 110 kts 249°
2026-05-08 01:07 -26.69575 -49.06439 8000 ft 110 kts 249°
2026-05-08 01:07 -26.70012 -49.07134 8000 ft 110 kts 249°
2026-05-08 01:07 -26.70450 -49.07830 8000 ft 110 kts 249°
2026-05-08 01:07 -26.70886 -49.08524 8000 ft 110 kts 249°
2026-05-08 01:08 -26.71324 -49.09220 8000 ft 109 kts 249°
2026-05-08 01:08 -26.71761 -49.09914 8000 ft 109 kts 249°
2026-05-08 01:08 -26.72200 -49.10614 7988 ft 111 kts 249°
2026-05-08 01:08 -26.72649 -49.11324 7981 ft 113 kts 248°
2026-05-08 01:09 -26.73106 -49.12033 7977 ft 113 kts 248°
2026-05-08 01:09 -26.73564 -49.12744 7977 ft 113 kts 248°
2026-05-08 01:09 -26.74023 -49.13454 7977 ft 113 kts 248°
2026-05-08 01:09 -26.74482 -49.14164 7977 ft 113 kts 248°
2026-05-08 01:10 -26.74939 -49.14871 7977 ft 113 kts 248°
2026-05-08 01:10 -26.75392 -49.15586 7977 ft 112 kts 249°
2026-05-08 01:10 -26.75847 -49.16294 7977 ft 113 kts 248°
2026-05-08 01:10 -26.76301 -49.17009 7977 ft 112 kts 248°
2026-05-08 01:11 -26.76756 -49.17718 7977 ft 113 kts 248°
2026-05-08 01:11 -26.77209 -49.18431 7977 ft 113 kts 248°
2026-05-08 01:11 -26.77666 -49.19141 7977 ft 113 kts 248°
2026-05-08 01:11 -26.78118 -49.19855 7977 ft 113 kts 248°
2026-05-08 01:12 -26.78572 -49.20564 7977 ft 112 kts 249°
2026-05-08 01:12 -26.79025 -49.21277 7977 ft 113 kts 248°
2026-05-08 01:12 -26.79479 -49.21989 7977 ft 112 kts 249°
2026-05-08 01:12 -26.79925 -49.22702 7980 ft 112 kts 249°
2026-05-08 01:13 -26.80372 -49.23414 7983 ft 112 kts 249°
2026-05-08 01:13 -26.80819 -49.24127 7983 ft 112 kts 249°
2026-05-08 01:13 -26.81267 -49.24841 7985 ft 112 kts 249°
2026-05-08 01:13 -26.81714 -49.25554 7985 ft 112 kts 249°
2026-05-08 01:14 -26.82169 -49.26266 7983 ft 113 kts 248°
2026-05-08 01:14 -26.82631 -49.26979 7982 ft 113 kts 248°
2026-05-08 01:14 -26.83092 -49.27689 7982 ft 113 kts 248°
2026-05-08 01:14 -26.83553 -49.28402 7982 ft 113 kts 248°
2026-05-08 01:15 -26.84009 -49.29117 7982 ft 113 kts 248°
2026-05-08 01:15 -26.84463 -49.29833 7982 ft 113 kts 248°
2026-05-08 01:15 -26.84920 -49.30548 7981 ft 113 kts 249°
2026-05-08 01:15 -26.85376 -49.31263 7982 ft 113 kts 248°
2026-05-08 01:16 -26.85831 -49.31981 7982 ft 113 kts 248°
2026-05-08 01:16 -26.86286 -49.32695 7982 ft 113 kts 249°
2026-05-08 01:16 -26.86744 -49.33411 7982 ft 113 kts 249°
2026-05-08 01:16 -26.87198 -49.34127 7981 ft 113 kts 248°
2026-05-08 01:17 -26.87655 -49.34844 7979 ft 113 kts 248°
2026-05-08 01:17 -26.88109 -49.35561 7979 ft 113 kts 248°
2026-05-08 01:17 -26.88566 -49.36279 7979 ft 113 kts 249°
2026-05-08 01:17 -26.89023 -49.36995 7979 ft 113 kts 249°
2026-05-08 01:18 -26.89478 -49.37710 7979 ft 113 kts 248°
2026-05-08 01:18 -26.89931 -49.38428 7979 ft 113 kts 248°
2026-05-08 01:18 -26.90389 -49.39143 7976 ft 113 kts 249°
2026-05-08 01:18 -26.90902 -49.39823 7975 ft 121 kts 230°
2026-05-08 01:19 -26.91577 -49.40379 7986 ft 121 kts 228°
2026-05-08 01:19 -26.92262 -49.40934 7980 ft 122 kts 227°
2026-05-08 01:19 -26.92946 -49.41488 7978 ft 122 kts 227°
2026-05-08 01:19 -26.93632 -49.42044 7977 ft 122 kts 227°
2026-05-08 01:20 -26.94316 -49.42599 7977 ft 122 kts 227°
2026-05-08 01:20 -26.95001 -49.43154 7977 ft 122 kts 227°
2026-05-08 01:20 -26.95686 -49.43709 7977 ft 122 kts 227°
2026-05-08 01:20 -26.96371 -49.44265 7977 ft 122 kts 227°
2026-05-08 01:21 -26.97054 -49.44818 7977 ft 122 kts 227°
2026-05-08 01:21 -26.97740 -49.45374 7977 ft 122 kts 227°
2026-05-08 01:21 -26.98425 -49.45929 7976 ft 122 kts 227°
2026-05-08 01:21 -26.99110 -49.46486 7980 ft 122 kts 227°
2026-05-08 01:22 -26.99796 -49.47042 7980 ft 122 kts 227°
2026-05-08 01:22 -27.00481 -49.47598 7980 ft 122 kts 227°
2026-05-08 01:22 -27.01169 -49.48156 7979 ft 122 kts 227°
2026-05-08 01:22 -27.01855 -49.48714 7979 ft 122 kts 227°
2026-05-08 01:23 -27.02541 -49.49271 7979 ft 122 kts 227°
2026-05-08 01:23 -27.03229 -49.49830 7979 ft 122 kts 227°
2026-05-08 01:23 -27.03915 -49.50387 7979 ft 122 kts 227°
2026-05-08 01:23 -27.04602 -49.50946 7979 ft 122 kts 227°
2026-05-08 01:24 -27.05286 -49.51502 7979 ft 122 kts 227°
2026-05-08 01:24 -27.05977 -49.52063 7979 ft 122 kts 227°
2026-05-08 01:24 -27.06663 -49.52620 7985 ft 122 kts 227°
2026-05-08 01:24 -27.07343 -49.53172 7997 ft 121 kts 228°
2026-05-08 01:25 -27.08018 -49.53732 8000 ft 121 kts 229°
2026-05-08 01:25 -27.08692 -49.54294 8000 ft 121 kts 229°
2026-05-08 01:25 -27.09370 -49.54855 8000 ft 122 kts 228°
2026-05-08 01:25 -27.10053 -49.55408 7999 ft 122 kts 227°
2026-05-08 01:26 -27.10742 -49.55968 7998 ft 122 kts 228°
2026-05-08 01:26 -27.11420 -49.56531 7999 ft 122 kts 229°
2026-05-08 01:26 -27.12103 -49.57092 7998 ft 122 kts 229°
2026-05-08 01:26 -27.12780 -49.57655 8000 ft 122 kts 229°
2026-05-08 01:27 -27.13460 -49.58217 8001 ft 122 kts 228°
2026-05-08 01:27 -27.14140 -49.58779 8000 ft 122 kts 229°
2026-05-08 01:27 -27.14825 -49.59337 8000 ft 122 kts 227°
2026-05-08 01:27 -27.15505 -49.59900 8000 ft 122 kts 229°
2026-05-08 01:28 -27.16190 -49.60459 8000 ft 122 kts 227°
2026-05-08 01:28 -27.16872 -49.61022 8000 ft 122 kts 229°
2026-05-08 01:28 -27.17555 -49.61581 8000 ft 122 kts 228°
2026-05-08 01:28 -27.18233 -49.62145 8000 ft 122 kts 229°
2026-05-08 01:29 -27.18917 -49.62703 8000 ft 122 kts 228°
2026-05-08 01:29 -27.19597 -49.63269 8000 ft 122 kts 229°
2026-05-08 01:29 -27.20281 -49.63829 8000 ft 122 kts 228°
2026-05-08 01:29 -27.20961 -49.64394 8000 ft 122 kts 229°
2026-05-08 01:30 -27.21644 -49.64953 8000 ft 122 kts 228°
2026-05-08 01:30 -27.22324 -49.65518 8000 ft 122 kts 229°
2026-05-08 01:30 -27.23006 -49.66077 8000 ft 122 kts 228°
2026-05-08 01:30 -27.23686 -49.66643 8000 ft 122 kts 229°
2026-05-08 01:31 -27.24371 -49.67203 8000 ft 122 kts 228°
2026-05-08 01:31 -27.25049 -49.67767 8000 ft 122 kts 229°
2026-05-08 01:31 -27.25729 -49.68333 7998 ft 122 kts 229°
2026-05-08 01:31 -27.26409 -49.68898 7998 ft 122 kts 229°
2026-05-08 01:32 -27.27092 -49.69457 7998 ft 122 kts 228°
2026-05-08 01:32 -27.27772 -49.70021 8000 ft 122 kts 229°
2026-05-08 01:32 -27.28457 -49.70582 8000 ft 122 kts 228°
2026-05-08 01:32 -27.29136 -49.71146 8000 ft 122 kts 229°
2026-05-08 01:33 -27.29821 -49.71707 8000 ft 122 kts 229°
2026-05-08 01:33 -27.30501 -49.72272 8000 ft 122 kts 229°
2026-05-08 01:33 -27.31186 -49.72832 8000 ft 122 kts 228°
2026-05-08 01:33 -27.31865 -49.73396 8000 ft 122 kts 229°
2026-05-08 01:34 -27.32550 -49.73958 8000 ft 122 kts 229°
2026-05-08 01:34 -27.33230 -49.74524 8000 ft 122 kts 229°
2026-05-08 01:34 -27.33916 -49.75083 8000 ft 122 kts 228°
2026-05-08 01:34 -27.34596 -49.75648 8000 ft 122 kts 229°
2026-05-08 01:35 -27.35280 -49.76211 8000 ft 122 kts 229°
2026-05-08 01:35 -27.35961 -49.76777 8000 ft 122 kts 228°
2026-05-08 01:35 -27.36645 -49.77338 8000 ft 122 kts 229°
2026-05-08 01:35 -27.37325 -49.77906 8000 ft 122 kts 229°
2026-05-08 01:36 -27.38007 -49.78470 8000 ft 122 kts 228°
2026-05-08 01:36 -27.38690 -49.79033 8000 ft 122 kts 228°
2026-05-08 01:36 -27.39373 -49.79596 8000 ft 122 kts 228°
2026-05-08 01:36 -27.40053 -49.80161 8000 ft 122 kts 228°
2026-05-08 01:37 -27.40732 -49.80723 8000 ft 122 kts 229°
2026-05-08 01:37 -27.41414 -49.81294 8000 ft 122 kts 229°
2026-05-08 01:37 -27.42097 -49.81857 7999 ft 122 kts 228°
2026-05-08 01:37 -27.42777 -49.82424 7999 ft 122 kts 229°
2026-05-08 01:38 -27.43455 -49.82992 7999 ft 122 kts 229°
2026-05-08 01:38 -27.44140 -49.83555 7999 ft 122 kts 228°
2026-05-08 01:38 -27.44823 -49.84120 7999 ft 122 kts 229°
2026-05-08 01:38 -27.45504 -49.84682 7999 ft 122 kts 228°
2026-05-08 01:39 -27.46186 -49.85248 8000 ft 122 kts 229°
2026-05-08 01:39 -27.46869 -49.85810 8000 ft 122 kts 228°
2026-05-08 01:39 -27.47549 -49.86375 8000 ft 122 kts 228°
2026-05-08 01:39 -27.48234 -49.86939 8000 ft 122 kts 229°
2026-05-08 01:40 -27.48915 -49.87504 8000 ft 122 kts 228°
2026-05-08 01:40 -27.49597 -49.88071 8000 ft 122 kts 229°
2026-05-08 01:40 -27.50280 -49.88633 8000 ft 122 kts 228°
2026-05-08 01:40 -27.50916 -49.89196 7997 ft 118 kts 239°
2026-05-08 01:41 -27.51426 -49.89880 8012 ft 114 kts 245°
2026-05-08 01:41 -27.51922 -49.90577 8004 ft 115 kts 245°
2026-05-08 01:41 -27.52417 -49.91279 8001 ft 115 kts 245°
2026-05-08 01:41 -27.52914 -49.91982 8000 ft 115 kts 245°
2026-05-08 01:42 -27.53418 -49.92682 7999 ft 115 kts 244°
2026-05-08 01:42 -27.53924 -49.93376 8001 ft 115 kts 244°
2026-05-08 01:42 -27.54429 -49.94069 8001 ft 115 kts 244°
2026-05-08 01:42 -27.54939 -49.94768 8001 ft 115 kts 244°
2026-05-08 01:43 -27.55447 -49.95465 8001 ft 115 kts 244°
2026-05-08 01:43 -27.55954 -49.96161 8001 ft 115 kts 244°
2026-05-08 01:43 -27.56462 -49.96857 8001 ft 115 kts 244°
2026-05-08 01:43 -27.56969 -49.97553 8001 ft 115 kts 244°
2026-05-08 01:44 -27.57477 -49.98250 8001 ft 115 kts 244°
2026-05-08 01:44 -27.57984 -49.98945 8001 ft 115 kts 244°
2026-05-08 01:44 -27.58491 -49.99642 8001 ft 115 kts 244°
2026-05-08 01:44 -27.58999 -50.00339 8001 ft 115 kts 244°
2026-05-08 01:45 -27.59505 -50.01034 8001 ft 115 kts 244°
2026-05-08 01:45 -27.60007 -50.01734 8001 ft 115 kts 245°
2026-05-08 01:45 -27.60503 -50.02435 8001 ft 115 kts 245°
2026-05-08 01:45 -27.61003 -50.03135 8000 ft 115 kts 244°
2026-05-08 01:46 -27.61511 -50.03833 8000 ft 115 kts 244°
2026-05-08 01:46 -27.62012 -50.04533 8000 ft 115 kts 245°
2026-05-08 01:46 -27.62515 -50.05232 8000 ft 115 kts 244°
2026-05-08 01:46 -27.63021 -50.05927 8000 ft 115 kts 244°
2026-05-08 01:47 -27.63527 -50.06623 8000 ft 115 kts 244°
2026-05-08 01:47 -27.64029 -50.07322 8000 ft 115 kts 245°
2026-05-08 01:47 -27.64536 -50.08019 8000 ft 115 kts 244°
2026-05-08 01:48 -27.65544 -50.09414 8000 ft 115 kts 244°
2026-05-08 01:48 -27.66050 -50.10112 8000 ft 115 kts 245°
2026-05-08 01:48 -27.66554 -50.10811 7988 ft 116 kts 244°
2026-05-08 01:48 -27.67074 -50.11541 7871 ft 123 kts 244°
2026-05-08 01:49 -27.67614 -50.12276 7646 ft 123 kts 240°
2026-05-08 01:49 -27.68413 -50.12725 7428 ft 135 kts 200°
2026-05-08 01:49 -27.69301 -50.13013 7208 ft 133 kts 206°
2026-05-08 01:49 -27.70174 -50.13346 7000 ft 131 kts 208°
2026-05-08 01:50 -27.71011 -50.13687 6851 ft 126 kts 210°
2026-05-08 01:50 -27.71821 -50.14044 6684 ft 125 kts 211°
2026-05-08 01:50 -27.72615 -50.14419 6524 ft 123 kts 213°
2026-05-08 01:50 -27.73392 -50.14813 6365 ft 122 kts 214°
2026-05-08 01:51 -27.74153 -50.15228 6200 ft 122 kts 217°
2026-05-08 01:51 -27.74892 -50.15661 6047 ft 120 kts 219°
2026-05-08 01:51 -27.75607 -50.16112 5887 ft 117 kts 221°
2026-05-08 01:51 -27.76293 -50.16580 5737 ft 114 kts 224°
2026-05-08 01:52 -27.76946 -50.17062 5581 ft 111 kts 226°
2026-05-08 01:52 -27.77559 -50.17556 5434 ft 108 kts 228°
2026-05-08 01:52 -27.78145 -50.18074 5309 ft 105 kts 231°
2026-05-08 01:52 -27.78697 -50.18607 5175 ft 104 kts 234°
2026-05-08 01:53 -27.79218 -50.19166 5048 ft 103 kts 237°
2026-05-08 01:53 -27.79705 -50.19748 4917 ft 103 kts 240°
2026-05-08 01:53 -27.80150 -50.20347 4819 ft 96 kts 244°
2026-05-08 01:53 -27.80526 -50.20925 4695 ft 86 kts 247°
2026-05-08 01:54 -27.80816 -50.21441 4580 ft 70 kts 247°
2026-05-08 01:54 -27.81026 -50.21884 4491 ft 58 kts 246°
2026-05-08 01:54 -27.81181 -50.22282 4422 ft 57 kts 244°
2026-05-08 01:54 -27.81320 -50.22718 4439 ft 62 kts 248°
2026-05-08 01:55 -27.81446 -50.23219 4379 ft 72 kts 246°
2026-05-08 01:55 -27.81510 -50.23873 4234 ft 98 kts 260°
2026-05-08 01:55 -27.81366 -50.24673 4084 ft 107 kts 296°
2026-05-08 01:55 -27.81046 -50.25359 3931 ft 92 kts 315°
2026-05-08 01:56 -27.80708 -50.25901 3729 ft 81 kts 315°
2026-05-08 01:56 -27.80452 -50.26471 3499 ft 76 kts 317°
2026-05-08 01:56 -27.80122 -50.26880 3355 ft 69 kts 334°
2026-05-08 01:56 -27.79746 -50.27149 3297 ft 62 kts 343°
2026-05-08 01:57 -27.79366 -50.27382 3243 ft 63 kts 342°
2026-05-08 01:57 -27.78990 -50.27621 3135 ft 62 kts 337°
2026-05-08 01:57 -27.78637 -50.27861 3073 ft 55 kts 336°
2026-05-08 01:57 -27.78371 -50.28047 3069 ft 29 kts 338°
2026-05-08 01:58 -27.78259 -50.28120 3069 ft 8 kts 324°
2026-05-08 01:58 -27.78217 -50.28117 3069 ft 6 kts 58°
2026-05-08 01:58 -27.78198 -50.28084 3069 ft 0 kts 57°
2026-05-08 01:58 -27.78166 -50.28048 3069 ft 8 kts 322°
2026-05-08 01:59 -27.78127 -50.28062 3069 ft 4 kts 58°
2026-05-08 01:59 -27.78123 -50.28055 3069 ft 0 kts 56°